• In Deutschland
  • Länderverzeichnis
  • Für 7 Tage
  • Wassertemperatur
  • Satellitenkarten
  • Wetterkarte
  • Widgets
  • user-avatar
    Anmelden

    Stündliche Wetter Bad Wurzach

    Heute, 22 Oktober, Sonntag

    Zeit Temperatur Niederschläge Wind Luftdruck Luftfeuchtigkeit
    00:00 +8°C° 1 mm 4 m/S 702 mmHg 93%
    01:00 +8°C° 0 mm 3 m/S 702 mmHg 94%
    02:00 +8°C° 0,8 mm 3 m/S 702 mmHg 94%
    03:00 +7°C° 0,8 mm 4 m/S 702 mmHg 93%
    04:00 +6°C° 0,8 mm 4 m/S 702 mmHg 93%
    05:00 +6°C° 0,4 mm 4 m/S 702 mmHg 93%
    06:00 +6°C° 0,4 mm 4 m/S 702 mmHg 93%
    07:00 +5°C° 0,4 mm 3 m/S 702 mmHg 93%
    08:00 +6°C° 0,3 mm 4 m/S 702 mmHg 90%
    09:00 +6°C° 0,3 mm 4 m/S 702 mmHg 88%
    10:00 +6°C° 0,3 mm 5 m/S 702 mmHg 86%
    11:00 +6°C° 0,3 mm 5 m/S 702 mmHg 84%
    12:00 +7°C° 0,3 mm 5 m/S 702 mmHg 82%
    13:00 +7°C° 0,3 mm 5 m/S 702 mmHg 81%
    14:00 +6°C° 0,5 mm 5 m/S 702 mmHg 82%
    15:00 +6°C° 0,5 mm 4 m/S 702 mmHg 83%
    16:00 +6°C° 0,5 mm 4 m/S 702 mmHg 84%
    17:00 +5°C° 0,5 mm 4 m/S 702 mmHg 87%
    18:00 +5°C° 0,5 mm 4 m/S 702 mmHg 90%
    19:00 +4°C° 0,5 mm 3 m/S 702 mmHg 92%
    20:00 +4°C° 0,3 mm 4 m/S 702 mmHg 93%
    21:00 +4°C° 0,3 mm 4 m/S 702 mmHg 94%
    22:00 +4°C° 0,3 mm 4 m/S 703 mmHg 94%
    23:00 +4°C° 0,3 mm 4 m/S 703 mmHg 94%

    Morgen, 23 Oktober, Montag

    Zeit Temperatur Niederschläge Wind Luftdruck Luftfeuchtigkeit
    00:00 +4°C° 0,3 mm 4 m/S 703 mmHg 94%
    01:00 +4°C° 0,3 mm 4 m/S 703 mmHg 94%
    02:00 +3°C° 0,1 mm 4 m/S 703 mmHg 94%
    03:00 +3°C° 0,1 mm 4 m/S 703 mmHg 94%
    04:00 +3°C° 0,1 mm 4 m/S 703 mmHg 95%
    05:00 +3°C° 0,4 mm 4 m/S 703 mmHg 94%
    06:00 +3°C° 0,4 mm 4 m/S 703 mmHg 94%
    07:00 +3°C° 0,4 mm 4 m/S 704 mmHg 94%
    08:00 +4°C° 0,5 mm 4 m/S 704 mmHg 93%
    09:00 +4°C° 0,5 mm 4 m/S 704 mmHg 91%
    10:00 +5°C° 0,5 mm 4 m/S 704 mmHg 90%
    11:00 +5°C° 0,4 mm 5 m/S 704 mmHg 89%
    12:00 +5°C° 0,4 mm 5 m/S 705 mmHg 88%
    13:00 +6°C° 0,4 mm 5 m/S 705 mmHg 88%
    14:00 +6°C° 0,4 mm 4 m/S 705 mmHg 89%
    15:00 +6°C° 0,4 mm 4 m/S 705 mmHg 90%
    16:00 +6°C° 0,4 mm 4 m/S 705 mmHg 92%
    17:00 +5°C° 0,5 mm 4 m/S 706 mmHg 93%
    18:00 +5°C° 0,5 mm 3 m/S 706 mmHg 94%
    19:00 +5°C° 0,5 mm 3 m/S 706 mmHg 95%
    20:00 +5°C° 0,4 mm 3 m/S 706 mmHg 95%
    21:00 +5°C° 0,4 mm 3 m/S 707 mmHg 96%
    22:00 +5°C° 0,4 mm 3 m/S 707 mmHg 96%
    23:00 +5°C° 0,2 mm 3 m/S 707 mmHg 96%

    übermorgen, 24 Oktober, Dienstag

    Zeit Temperatur Niederschläge Wind Luftdruck Luftfeuchtigkeit
    00:00 +5°C° 0,2 mm 3 m/S 707 mmHg 96%
    01:00 +5°C° 0,2 mm 3 m/S 707 mmHg 96%
    02:00 +5°C° 0 mm 3 m/S 707 mmHg 96%
    03:00 +5°C° 0 mm 3 m/S 707 mmHg 96%
    04:00 +5°C° 0 mm 3 m/S 707 mmHg 95%
    05:00 +5°C° 0 mm 3 m/S 708 mmHg 95%
    06:00 +5°C° 0 mm 3 m/S 708 mmHg 95%
    07:00 +5°C° 0 mm 3 m/S 708 mmHg 94%
    08:00 +5°C° 0 mm 3 m/S 708 mmHg 93%
    09:00 +7°C° 0 mm 3 m/S 708 mmHg 92%
    10:00 +8°C° 0 mm 2 m/S 708 mmHg 91%
    11:00 +9°C° 0 mm 2 m/S 708 mmHg 86%
    12:00 +12°C° 0 mm 2 m/S 708 mmHg 82%
    13:00 +13°C° 0 mm 2 m/S 708 mmHg 78%
    14:00 +13°C° 0 mm 2 m/S 708 mmHg 80%
    15:00 +13°C° 0 mm 1 m/S 708 mmHg 82%
    16:00 +13°C° 0 mm 1 m/S 708 mmHg 84%
    17:00 +11°C° 0 mm 1 m/S 708 mmHg 87%
    18:00 +10°C° 0 mm 1 m/S 708 mmHg 90%
    19:00 +8°C° 0 mm 2 m/S 708 mmHg 93%
    20:00 +7°C° 0 mm 2 m/S 708 mmHg 93%
    21:00 +7°C° 0 mm 2 m/S 708 mmHg 92%
    22:00 +6°C° 0 mm 2 m/S 708 mmHg 92%
    23:00 +7°C° 0 mm 1 m/S 708 mmHg 91%

    25 Oktober, Mittwoch

    Zeit Temperatur Niederschläge Wind Luftdruck Luftfeuchtigkeit
    00:00 +7°C° 0 mm 1 m/S 708 mmHg 90%
    01:00 +7°C° 0 mm 1 m/S 707 mmHg 89%
    02:00 +7°C° 0 mm 1 m/S 707 mmHg 89%
    03:00 +7°C° 0 mm 1 m/S 707 mmHg 88%
    04:00 +7°C° 0 mm 1 m/S 707 mmHg 87%
    05:00 +7°C° 0 mm 1 m/S 707 mmHg 87%
    06:00 +7°C° 0 mm 1 m/S 707 mmHg 87%
    07:00 +7°C° 0 mm 1 m/S 707 mmHg 86%
    08:00 +9°C° 0 mm 1 m/S 707 mmHg 82%
    09:00 +11°C° 0 mm 1 m/S 707 mmHg 77%
    10:00 +13°C° 0 mm 1 m/S 708 mmHg 73%
    11:00 +14°C° 0 mm 1 m/S 708 mmHg 71%
    12:00 +16°C° 0 mm 1 m/S 708 mmHg 68%
    13:00 +18°C° 0 mm 1 m/S 708 mmHg 66%
    14:00 +16°C° 0 mm 1 m/S 708 mmHg 70%
    15:00 +16°C° 0 mm 1 m/S 708 mmHg 75%
    16:00 +15°C° 0 mm 1 m/S 708 mmHg 79%
    17:00 +14°C° 0 mm 1 m/S 708 mmHg 82%
    18:00 +12°C° 0 mm 1 m/S 708 mmHg 85%
    19:00 +10°C° 0 mm 2 m/S 708 mmHg 88%
    20:00 +10°C° 0 mm 2 m/S 708 mmHg 88%
    21:00 +9°C° 0 mm 2 m/S 708 mmHg 88%
    22:00 +9°C° 0 mm 2 m/S 709 mmHg 88%
    23:00 +10°C° 0 mm 1 m/S 709 mmHg 88%

    26 Oktober, Donnerstag

    Zeit Temperatur Niederschläge Wind Luftdruck Luftfeuchtigkeit
    00:00 +10°C° 0 mm 1 m/S 709 mmHg 88%
    01:00 +9°C° 0 mm 1 m/S 709 mmHg 88%
    02:00 +9°C° 0 mm 1 m/S 709 mmHg 88%
    03:00 +9°C° 0 mm 1 m/S 709 mmHg 87%
    04:00 +8°C° 0 mm 2 m/S 709 mmHg 87%
    05:00 +8°C° 0 mm 2 m/S 709 mmHg 87%
    06:00 +7°C° 0 mm 2 m/S 709 mmHg 87%
    07:00 +7°C° 0 mm 2 m/S 709 mmHg 87%
    08:00 +10°C° 0 mm 1 m/S 709 mmHg 82%
    09:00 +12°C° 0 mm 1 m/S 709 mmHg 76%
    10:00 +14°C° 0 mm 1 m/S 709 mmHg 71%
    11:00 +16°C° 0 mm 1 m/S 709 mmHg 69%
    12:00 +18°C° 0 mm 1 m/S 709 mmHg 66%
    13:00 +19°C° 0 mm 1 m/S 709 mmHg 63%
    14:00 +18°C° 0 mm 1 m/S 709 mmHg 67%
    15:00 +18°C° 0 mm 1 m/S 709 mmHg 72%
    16:00 +16°C° 0 mm 1 m/S 708 mmHg 76%
    17:00 +15°C° 0 mm 1 m/S 708 mmHg 80%
    18:00 +13°C° 0 mm 1 m/S 708 mmHg 84%
    19:00 +11°C° 0 mm 1 m/S 708 mmHg 87%
    20:00 +11°C° 0 mm 1 m/S 708 mmHg 87%
    21:00 +9°C° 0 mm 2 m/S 708 mmHg 87%
    22:00 +9°C° 0 mm 2 m/S 708 mmHg 87%
    23:00 +9°C° 0 mm 2 m/S 708 mmHg 86%

    27 Oktober, Freitag

    Zeit Temperatur Niederschläge Wind Luftdruck Luftfeuchtigkeit
    00:00 +9°C° 0 mm 2 m/S 707 mmHg 86%
    01:00 +8°C° 0 mm 2 m/S 707 mmHg 85%
    02:00 +8°C° 0 mm 2 m/S 707 mmHg 84%
    03:00 +8°C° 0 mm 2 m/S 706 mmHg 84%
    04:00 +8°C° 0 mm 2 m/S 706 mmHg 83%
    05:00 +8°C° 0 mm 3 m/S 706 mmHg 82%
    06:00 +8°C° 0 mm 3 m/S 705 mmHg 81%
    07:00 +8°C° 0 mm 3 m/S 705 mmHg 80%
    08:00 +10°C° 0 mm 3 m/S 705 mmHg 76%
    09:00 +12°C° 0 mm 4 m/S 705 mmHg 71%
    10:00 +14°C° 0 mm 4 m/S 705 mmHg 67%
    11:00 +15°C° 0 mm 5 m/S 704 mmHg 65%
    12:00 +16°C° 0 mm 5 m/S 704 mmHg 63%
    13:00 +16°C° 0 mm 6 m/S 704 mmHg 61%
    14:00 +16°C° 0 mm 6 m/S 703 mmHg 63%
    15:00 +15°C° 0 mm 6 m/S 703 mmHg 65%
    16:00 +15°C° 0 mm 6 m/S 702 mmHg 67%
    17:00 +14°C° 0,1 mm 6 m/S 702 mmHg 72%
    18:00 +13°C° 0,1 mm 6 m/S 702 mmHg 77%
    19:00 +11°C° 0,1 mm 7 m/S 702 mmHg 81%
    20:00 +11°C° 1,1 mm 7 m/S 703 mmHg 85%
    21:00 +10°C° 1,1 mm 7 m/S 703 mmHg 88%
    22:00 +10°C° 1,1 mm 7 m/S 703 mmHg 92%
    23:00 +9°C° 1,3 mm 6 m/S 703 mmHg 92%
    Mehr zeigen